Hourly Data Report for September 14, 2017

All times are specified in Local Standard Time (LST). Add 1 hour to adjust for Daylight Saving Time where and when it is observed.

TORONTO INTL A
ONTARIO

43°40'36.000" N
79°37'50.000" W
173.40 m
6158731
71624
YYZ

Download Data

Hourly Data (September 2017)
Hourly Data Report for September 14, 2017
Temp Definition
°C
Dew Point Temp Definition
°C
Rel Hum Definition
%
Wind Dir Definition
10's deg

Wind Spd Definition
km/h
Visibility Definition
km
Stn Press Definition
kPa
Hmdx Definition


Wind Chill Definition


Weather Definition


TIME
00:00 Legend Double Dagger 17.7 13.7 77 32 5 24.1 98.86     LegendNANA
01:00 Legend Double Dagger 17.3 14.1 81 23 5 24.1 98.86     Mostly Cloudy
02:00 Legend Double Dagger 17.5 13.8 79 23 4 24.1 98.88     LegendNANA
03:00 Legend Double Dagger 17.7 14.5 81 22 4 24.1 98.86     LegendNANA
04:00 Legend Double Dagger 17.3 14.6 84 22 7 24.1 98.91     Mostly Cloudy
05:00 Legend Double Dagger 17.1 14.9 87 19 6 24.1 98.93     LegendNANA
06:00 Legend Double Dagger 15.6 14.0 90 25 9 24.1 98.97     LegendNANA
07:00 Legend Double Dagger 17.4 15.6 89 33 3 24.1 99.03     Mostly Cloudy
08:00 Legend Double Dagger 19.6 16.6 82 30 13 24.1 99.05     LegendNANA
09:00 Legend Double Dagger 22.4 17.2 72 32 10 24.1 99.08 28   LegendNANA
10:00 Legend Double Dagger 24.0 17.5 66 34 8 24.1 99.08 30   Mainly Clear
11:00 Legend Double Dagger 24.9 16.2 58 27 8 24.1 99.06 30   LegendNANA
12:00 Legend Double Dagger 26.2 15.3 51 23 9 24.1 99.04 30   LegendNANA
13:00 Legend Double Dagger 26.4 16.5 54 15 10 24.1 99.04 31   Mostly Cloudy
14:00 Legend Double Dagger 26.4 16.4 54 19 5 24.1 99.02 31   LegendNANA
15:00 Legend Double Dagger 26.3 16.1 53 15 7 24.1 99.03 31   LegendNANA
16:00 Legend Double Dagger 27.0 15.0 47 29 13 24.1 99.02 31   Mostly Cloudy
17:00 Legend Double Dagger 26.5 15.3 50 28 18 24.1 99.05 31   LegendNANA
18:00 Legend Double Dagger 26.0 15.1 50 29 19 24.1 99.13 30   LegendNANA
19:00 Legend Double Dagger 24.8 16.6 60 34 28 24.1 99.21 30   Mostly Cloudy
20:00 Legend Double Dagger 23.2 17.3 69 34 18 24.1 99.29 29   LegendNANA
21:00 Legend Double Dagger 22.4 16.8 70 35 17 24.1 99.33 28   LegendNANA
22:00 Legend Double Dagger 21.6 16.9 74 32 16 24.1 99.39 27   Mostly Cloudy
23:00 Legend Double Dagger 21.4 16.7 74 33 15 24.1 99.41 26   LegendNANA

Notes on Data Quality.

Legend

  • E = Estimated
  • M = Missing
  • NA = Not Available
  • ‡ = Partner data that is not subject to review by the National Climate Archives
Date modified: